User: anonymous   Login
Location: ????????
(55.7667°N, 37.4833°E)
Time: 05:20:03
(UTC+00:00)
Language:

COSMOS 2455 - Orbit

View from above orbital plane
View from above orbital plane
View from above satellite
View from above satellite

Ground track
Ground track

The orbit data is extracted from the following two-line orbital elements,

1 36095U 09063A   25198.52701656 -.00000052  00000-0  17023-4 0  9993
2 36095  67.1492 346.7650 0007195 293.3435  66.6892 13.97006933798570
Epoch (UTC): 17 July 2025 12:38:54
Eccentricity: 0.0007195
inclination: 67.1492°
perigee height: 899 km
apogee height: 909 km
right ascension of ascending node: 346.7650°
argument of perigee: 293.3435°
revolutions per day: 13.97006933
mean anomaly at epoch: 66.6892°
orbit number at epoch: 79857

The dashed part of the orbit path shows where the satellite is in the earth's shadow,  

DLR